Weather History for Paris Le Bourget, France

Change the Weather History Date:

Friday, March 7, 2014

  Actual Average Record
Temperature  
Mean Temperature 46 °F -  
Max Temperature 60 °F 54 °F 66 °F (2001)
Min Temperature 33 °F 40 °F 30 °F (2005)
Degree Days  
Heating Degree Days 18    
Moisture  
Dew Point 36 °F    
Average Humidity 66    
Maximum Humidity 93    
Minimum Humidity 27    
Precipitation  
Precipitation 0.00 in 0.07 in - ()
Sea Level Pressure  
Sea Level Pressure 30.30 in    
Wind  
Wind Speed 3 mph ()    
Max Wind Speed 8 mph    
Max Gust Speed -    
Visibility 5.6 miles    
Events      
Averages and records for this station are not official NWS values.
T = Trace of Precipitation, MM = Missing Value Source: Averaged Metar Reports

Daily Weather History Graph

Daily Weather History Graph

Search for Another Location

Airport:

Trip Planner

Search our weather history database for the weather conditions in past years. The results will help you decide how hot, cold, wet, or windy it might be!

Date:

Astronomy

Mar. 07, 2014 Rise Set
Actual Time 7:20 AM CET 6:42 PM CET
Civil Twilight 6:49 AM CET 7:14 PM CET
Nautical Twilight 6:12 AM CET 7:51 PM CET
Astronomical Twilight 5:35 AM CET 8:28 PM CET
Moon 10:30 AM CET (3/7) 1:03 AM CET (3/7)
Length of Visible Light 12h 25m
Length of Day
11h 22m
Waxing Crescent, 39% of the Moon is Illuminated
Mar 7
Waxing Crescent
Mar 8
First Quarter
Mar 16
Full
Mar 24
Last Quarter
Mar 30
New

Hourly Weather History & Observations

Time (CET) Temp. Windchill Dew Point Humidity Pressure Visibility Wind Dir Wind Speed Gust Speed Precip Events Conditions
12:00 AM 41 °F - 34 °F 68% 30.30 in 6 mi East 3.5 mph - -   Clear
12:00 AM 41.0 °F 39.0 °F 33.8 °F 76% 30.27 in 6.2 mi East 3.5 mph - N/A   Unknown
12:30 AM 41.0 °F 39.0 °F 33.8 °F 76% 30.27 in 5.0 mi NE 3.5 mph - N/A   Unknown
1:00 AM 41.0 °F 39.0 °F 33.8 °F 76% 30.27 in 5.6 mi North 3.5 mph - N/A   Unknown
1:30 AM 41.0 °F 39.0 °F 33.8 °F 76% 30.27 in 4.3 mi NE 3.5 mph - N/A   Unknown
2:00 AM 39 °F - 34 °F 76% 30.30 in 4 mi NE 4.6 mph - -   Clear
2:00 AM 39.2 °F 35.9 °F 33.8 °F 81% 30.27 in 4.3 mi NE 4.6 mph - N/A   Unknown
2:30 AM 37.4 °F 34.9 °F 33.8 °F 87% 30.27 in 3.7 mi North 3.5 mph - N/A   Unknown
3:00 AM 37 °F - 34 °F 83% 30.30 in 4 mi North 4.6 mph - -   Clear
3:00 AM 37.4 °F 33.8 °F 33.8 °F 87% 30.27 in 3.7 mi North 4.6 mph - N/A   Unknown
3:30 AM 35.6 °F - 32.0 °F 87% 30.27 in 3.7 mi North 1.2 mph - N/A   Unknown
4:00 AM 36 °F - 34 °F 87% 30.29 in 3 mi North 2.3 mph - -   Clear
4:00 AM 35.6 °F - 33.8 °F 93% 30.27 in 3.7 mi Variable 2.3 mph - N/A   Unknown
4:30 AM 35.6 °F 32.8 °F 33.8 °F 93% 30.27 in 3.1 mi ENE 3.5 mph - N/A   Mist
5:00 AM 35 °F - 33 °F 87% 30.28 in 3 mi East 4.6 mph - -   Clear
5:00 AM 35.6 °F 31.7 °F 32.0 °F 87% 30.24 in 3.1 mi East 4.6 mph - N/A   Mist
5:30 AM 35.6 °F 31.7 °F 32.0 °F 87% 30.24 in 3.1 mi East 4.6 mph - N/A   Mist
6:00 AM 34 °F - 32 °F 89% 30.28 in 3 mi East 4.6 mph - -   Mist
6:00 AM 33.8 °F 29.6 °F 32.0 °F 93% 30.24 in - East 4.6 mph - N/A   Mist
6:30 AM 33.8 °F 28.6 °F 32.0 °F 93% 30.27 in - East 5.8 mph - N/A   Mist
7:00 AM 35 °F - 32 °F 83% 30.29 in 3 mi East 4.6 mph - -   Mist
7:00 AM 33.8 °F 29.6 °F 32.0 °F 93% 30.27 in - East 4.6 mph - N/A   Mist
7:30 AM 33.8 °F 29.6 °F 32.0 °F 93% 30.27 in - East 4.6 mph - N/A   Mist
8:00 AM 36 °F - 33 °F 86% 30.30 in 3 mi ENE 3.5 mph - -   Mist
8:00 AM 35.6 °F 32.8 °F 33.8 °F 93% 30.27 in - Variable 3.5 mph - N/A   Mist
8:30 AM 37.4 °F - 35.6 °F 93% 30.30 in - East 2.3 mph - N/A   Mist
9:00 AM 42 °F - 38 °F 82% 30.31 in 3 mi ESE 2.3 mph - -   Mist
9:00 AM 42.8 °F - 39.2 °F 87% 30.30 in 3.1 mi ESE 2.3 mph - N/A   Mist
9:30 AM 44.6 °F - 37.4 °F 76% 30.30 in 3.7 mi SE 2.3 mph - N/A   Unknown
10:00 AM 48 °F - 38 °F 59% 30.32 in 4 mi Calm Calm - -   Clear
10:00 AM 48.2 °F - 37.4 °F 66% 30.30 in 4.3 mi Calm Calm - N/A   Unknown
10:30 AM 50.0 °F - 37.4 °F 62% 30.30 in 4.3 mi South 3.5 mph - N/A   Unknown
11:00 AM 52 °F - 39 °F 50% 30.32 in 4 mi SSW 3.5 mph - -   Clear
11:00 AM 51.8 °F - 39.2 °F 62% 30.30 in 4.3 mi Variable 3.5 mph - N/A   Unknown
11:30 AM 55.4 °F - 39.2 °F 54% 30.30 in 5.0 mi Variable 2.3 mph - N/A   Unknown
12:00 PM 56 °F - 37 °F 38% 30.32 in 7 mi WSW 8.1 mph - -   Clear
12:00 PM 55.4 °F - 37.4 °F 51% 30.30 in 6.2 mi WSW 8.1 mph - N/A   Unknown
12:30 PM 57.2 °F - 37.4 °F 48% 30.30 in 6.2 mi West 8.1 mph - N/A   Unknown
1:00 PM 57 °F - 37 °F 35% 30.31 in 7 mi West 4.6 mph - -   Clear
1:00 PM 57.2 °F - 37.4 °F 48% 30.30 in 6.2 mi West 4.6 mph - N/A   Unknown
1:30 PM 59.0 °F - 37.4 °F 45% 30.30 in 6.2 mi Variable 4.6 mph - N/A   Unknown
2:00 PM 60 °F - 35 °F 27% 30.31 in 11 mi West 5.8 mph - -   Clear
2:00 PM 60.8 °F - 35.6 °F 39% 30.30 in 6.2 mi West 5.8 mph - N/A   Unknown
2:30 PM 59.0 °F - 33.8 °F 39% 30.30 in 6.2 mi West 4.6 mph - N/A   Unknown
3:00 PM 60 °F - 35 °F 27% 30.30 in 11 mi South 3.5 mph - -   Clear
3:00 PM 60.8 °F - 35.6 °F 39% 30.27 in 6.2 mi Variable 3.5 mph - N/A   Unknown
3:30 PM 59.0 °F - 33.8 °F 39% 30.27 in 6.2 mi WNW 4.6 mph - N/A   Unknown
4:00 PM 59 °F - 36 °F 31% 30.29 in 11 mi NNE 2.3 mph - -   Clear
4:00 PM 59.0 °F - 37.4 °F 45% 30.27 in 6.2 mi Variable 2.3 mph - N/A   Unknown
4:30 PM 59.0 °F - 37.4 °F 45% 30.27 in 6.2 mi Variable 3.5 mph - N/A   Unknown
5:00 PM 58 °F - 37 °F 34% 30.28 in 12 mi Calm Calm - -   Clear
5:00 PM 57.2 °F - 37.4 °F 48% 30.27 in 6.2 mi Calm Calm - N/A   Unknown
5:30 PM 57.2 °F - 37.4 °F 48% 30.27 in 6.2 mi Variable 3.5 mph - N/A   Unknown
6:00 PM 54 °F - 40 °F 47% 30.30 in 9 mi ENE 5.8 mph - -   Clear
6:00 PM 55.4 °F - 39.2 °F 54% 30.27 in 6.2 mi ENE 5.8 mph - N/A   Unknown
6:30 PM 53.6 °F - 39.2 °F 58% 30.30 in 6.2 mi ENE 3.5 mph - N/A   Unknown
7:00 PM 54 °F - 38 °F 43% 30.33 in 7 mi NNE 3.5 mph - -   Clear
7:00 PM 53.6 °F - 37.4 °F 54% 30.30 in 6.2 mi NNE 3.5 mph - N/A   Unknown
7:30 PM 53.6 °F - 37.4 °F 54% 30.33 in 6.2 mi NNE 3.5 mph - N/A   Unknown
8:00 PM 51 °F - 39 °F 52% 30.36 in 7 mi North 3.5 mph - -   Clear
8:00 PM 51.8 °F - 39.2 °F 62% 30.36 in 6.2 mi Variable 3.5 mph - N/A   Unknown
8:30 PM 50.0 °F - 39.2 °F 66% 30.36 in 6.2 mi Variable 3.5 mph - N/A   Partly Cloudy
9:00 PM 49 °F - 39 °F 59% 30.37 in 8 mi NNE 3.5 mph - -   Clear
9:00 PM 50.0 °F - 39.2 °F 66% 30.36 in 6.2 mi NNE 3.5 mph - N/A   Unknown
9:30 PM 48.2 °F - 39.2 °F 71% 30.36 in 6.2 mi NNE 2.3 mph - N/A   Unknown
10:00 PM 47 °F - 39 °F 65% 30.38 in 7 mi North 3.5 mph - -   Clear
10:00 PM 46.4 °F 45.2 °F 39.2 °F 76% 30.36 in 6.2 mi North 3.5 mph - N/A   Unknown
10:30 PM 44.6 °F - 37.4 °F 76% 30.36 in 6.2 mi Calm Calm - N/A   Unknown
11:00 PM 44 °F - 38 °F 71% 30.39 in 6 mi North 3.5 mph - -   Clear
11:00 PM 42.8 °F 41.1 °F 37.4 °F 81% 30.36 in 6.2 mi North 3.5 mph - N/A   Unknown
11:30 PM 44.6 °F - 39.2 °F 81% 30.36 in 5.6 mi North 2.3 mph - N/A   Unknown